sat.trackr.live / text

‹ back to catalog

STARLINK-4384

NORAD 53218 · 2022-084AF

PAYLOAD ACTIVE UNKNOWN

§ Identity

Operator
Country
US
Launch date
2022-07-22
Launch site
AFWTR
Launch vehicle
Mass (kg)
RCS (m²)

Purposes: comms

External: N2YO · Heavens-Above · Gunter

§ Orbital elements

Epoch: 2026-09-20T04:00:03.000096Z

Period
93.91 min
Inclination
97.2845°
Eccentricity
0.0001748
Mean motion
15.33430841 rev/d
Perigee alt
464.4 km
Apogee alt
466.8 km
Semi-major
6,843.7 km
B*
4.3545e-4
RAAN
318.8566°
Arg perigee
84.0191°
Mean anomaly
97.3232°
Rev number
583

§ Raw data

STARLINK-43841 53218U 22084AF  26263.16670139  .00014003  00000+0  43545-3 0  99982 53218  97.2845 318.8566 0001748  84.0191  97.3232 15.33430841  5830

JSON: /api/v1/satellites/53218 · /tle

For live sub-satellite position, see the globe view (requires WebGL).

§ Visibility from observer

Set your observer location to see the next 7 days of passes ≥ 10°. The values pass through the URL so the page stays shareable.

No JS? Fill the form by hand. The geolocation button needs JavaScript.